Location: Monfort
(47.1967°N, 0.2115°W)
Time: 11:43:34
(UTC+00:00)

ATLAS 5 CENTAUR R/B - Pass Details

Date: 24 October 2020
Orbit: 531 x 1127 km, 63.4° (Epoch: 22 November)

Event Time Altitude Azimuth Distance (km) Brightness Sun altitude
Rises 17:57:55 0° 264° (W) 2,763 7.2 -11.0°
Reaches altitude 10° 18:00:27 10° 281° (W) 1,930 5.4 -11.5°
Maximum altitude 18:03:51 22° 333° (NNW) 1,407 3.6 -12.0°
Drops below altitude 10° 18:07:38 10° 24° (NNE) 2,169 4.1 -12.7°
Enters shadow 18:09:25 - 34° (NE) 2,764 4.5 -13.0°
